Location: Appeville
(49.3218°N, 1.3427°W)
Time: 19:01:06
(UTC+00:00)

Cosmos 2180 Rocket - Pass Details

Date: 08 December 2019
Orbit: 954 x 1004 km, 82.9° (Epoch: 26 January)

Event Time Altitude Azimuth Distance (km) Brightness Sun altitude
Rises 06:40:54 0° 195° (SSW) 3,620 7.6 -10.3°
Reaches altitude 10° 06:43:24 10° 198° (SSW) 2,678 6.9 -9.9°
Maximum altitude 06:49:30 70° 281° (WNW) 1,018 4.4 -9.0°
Drops below altitude 10° 06:55:40 10° 6° (N) 2,708 6.6 -8.1°
Sets 06:58:13 0° 9° (N) 3,664 7.3 -7.7°
